FW9766 Weather Reports


Display with metric or nautical units.
time (UTC)temp
F
wind
direction
speed
MPH
gust
MPH
rain 1hr
in
rain 24hr
in
rain mn
in
humidity
%
barometer
mb
20260510193052 89 123 7.0 17.0 0.00 0.00 0.00 54 1013.9
20260510191549 89 101 6.0 13.0 0.00 0.00 0.00 58 1014.1
20260510190052 88 124 5.0 14.0 0.00 0.00 0.00 59 1014.2
20260510184547 88 82 7.0 14.0 0.00 0.00 0.00 56 1014.3
20260510183057 88 61 7.0 13.0 0.00 0.00 0.00 55 1014.3
20260510181614 88 16 4.0 13.0 0.00 0.00 0.00 56 1014.6
20260510180059 87 42 3.0 14.0 0.00 0.00 0.00 60 1014.9
20260510174556 87 126 5.0 13.0 0.00 0.00 0.00 59 1015.2
20260510173046 86 49 5.0 13.0 0.00 0.00 0.00 62 1015.1
20260510171545 87 22 5.0 13.0 0.00 0.00 0.00 59 1015.1
20260510170049 85 117 4.0 13.0 0.00 0.00 0.00 63 1015.2
20260510164544 84 32 6.0 13.0 0.00 0.00 0.00 63 1014.9
20260510163054 84 86 4.0 12.0 0.00 0.00 0.00 66 1014.8
20260510161549 83 46 4.0 13.0 0.00 0.00 0.00 68 1014.8
20260510160044 82 78 5.0 15.0 0.00 0.00 0.00 68 1014.3
20260510154541 81 99 6.0 12.0 0.00 0.00 0.00 72 1014.1
20260510153046 80 44 5.0 11.0 0.00 0.00 0.00 71 1014.2
20260510151547 79 82 5.0 13.0 0.00 0.00 0.00 75 1014.0
20260510150051 78 123 4.0 10.0 0.00 0.00 0.00 76 1014.0
20260510144547 77 132 5.0 10.0 0.00 0.00 0.00 79 1014.1
20260510143053 76 106 3.0 12.0 0.00 0.00 0.00 80 1014.1
20260510141552 75 123 6.0 11.0 0.00 0.00 0.00 82 1014.1
20260510140048 73 135 5.0 9.0 0.00 0.00 0.00 85 1013.9
20260510134548 71 94 3.0 9.0 0.00 0.00 0.00 88 1013.9
20260510133047 70 119 3.0 8.0 0.00 0.00 0.00 90 1014.0
20260510131546 68 106 3.0 9.0 0.00 0.00 0.00 92 1013.7
20260510130048 68 120 2.0 7.0 0.00 0.00 0.00 93 1013.5
20260510124544 67 107 3.0 8.0 0.00 0.00 0.00 93 1013.4
20260510123049 67 0 1.0 4.0 0.00 0.00 0.00 93 1013.3
20260510121549 66 50 0.0 4.0 0.00 0.00 0.00 93 1013.3
20260510120050 66 0 0.0 3.0 0.00 0.00 0.00 93 1013.2
20260510114548 66 78 1.0 3.0 0.00 0.00 0.00 92 1013.1
20260510113045 67 0 0.0 1.0 0.00 0.00 0.00 92 1013.1
20260510111541 67 0 0.0 3.0 0.00 0.00 0.00 91 1012.9
20260510110047 68 103 0.0 4.0 0.00 0.00 0.00 91 1012.8
20260510104548 68 111 2.0 6.0 0.00 0.00 0.00 90 1012.9
20260510103049 68 112 1.0 6.0 0.00 0.00 0.00 90 1012.9
20260510101550 68 100 2.0 7.0 0.00 0.00 0.00 90 1012.8
20260510100108 68 68 2.0 6.0 0.00 0.00 0.00 90 1012.8
20260510094542 69 121 1.0 7.0 0.00 0.00 0.00 90 1012.7
20260510093051 69 58 1.0 4.0 0.00 0.00 0.00 89 1012.9
20260510091547 69 98 2.0 8.0 0.00 0.00 0.00 89 1012.7
20260510090058 69 80 2.0 7.0 0.00 0.00 0.00 89 1012.6
20260510084544 69 133 2.0 7.0 0.00 0.00 0.00 89 1012.6
20260510083046 69 113 1.0 6.0 0.00 0.00 0.00 88 1012.6
20260510081545 69 68 1.0 4.0 0.00 0.00 0.00 88 1012.6
20260510080052 69 81 1.0 4.0 0.00 0.00 0.00 87 1012.7
20260510074547 69 78 1.0 4.0 0.00 0.00 0.00 87 1012.8
20260510073047 70 0 0.0 1.0 0.00 0.00 0.00 86 1012.7
20260510071555 70 0 0.0 0.0 0.00 0.00 0.00 85 1012.8
20260510070046 70 0 0.0 1.0 0.00 0.00 0.00 85 1012.7
20260510064541 71 0 0.0 3.0 0.00 0.00 0.00 84 1012.8
20260510063047 71 0 0.0 0.0 0.00 0.00 0.00 84 1012.8
20260510061550 72 0 0.0 0.0 0.00 0.00 0.00 83 1012.9
20260510060050 72 0 0.0 5.0 0.00 0.00 0.00 83 1012.8
20260510054549 72 0 0.0 3.0 0.00 0.00 0.00 83 1012.8
20260510053042 72 0 0.0 4.0 0.00 0.00 0.00 84 1012.7
20260510051541 71 95 0.0 2.0 0.00 0.00 0.00 84 1012.8
20260510050047 71 0 0.0 3.0 0.00 0.00 0.00 84 1012.7
20260510044550 72 0 0.0 0.0 0.00 0.00 0.00 83 1012.5
20260510043054 73 0 0.0 0.0 0.00 0.00 0.00 82 1012.5
20260510041545 74 0 0.0 0.0 0.00 0.00 0.00 80 1012.5
20260510040042 75 0 0.0 0.0 0.00 0.00 0.00 78 1012.5
20260510034549 75 0 0.0 3.0 0.00 0.00 0.00 78 1012.5
20260510033110 76 17 0.0 3.0 0.00 0.00 0.00 77 1012.3
20260510031551 76 40 0.0 6.0 0.00 0.00 0.00 77 1011.9
20260510030045 76 0 0.0 3.0 0.00 0.00 0.00 76 1011.6
20260510024546 77 0 0.0 0.0 0.00 0.00 0.00 73 1011.5
20260510023049 77 0 0.0 3.0 0.00 0.00 0.00 72 1011.3
20260510021547 78 0 0.0 0.0 0.00 0.00 0.00 70 1011.2
20260510020050 79 0 0.0 0.0 0.00 0.00 0.00 67 1010.8
20260510014547 80 0 0.0 0.0 0.00 0.00 0.00 64 1010.6
20260510013049 82 0 0.0 3.0 0.00 0.00 0.00 60 1010.3
20260510011552 83 0 0.0 1.0 0.00 0.00 0.00 56 1010.2
20260510010043 86 0 0.0 1.0 0.00 0.00 0.00 54 1010.1
20260510004552 89 0 0.0 2.0 0.00 0.00 0.00 49 1010.0
20260510003109 90 0 0.0 2.0 0.00 0.00 0.00 50 1009.9
20260510001545 90 0 0.0 3.0 0.00 0.00 0.00 49 1009.9
20260510000047 91 338 0.0 5.0 0.00 0.00 0.00 45 1009.7
20260509234600 91 0 0.0 4.0 0.00 0.00 0.00 47 1009.6
20260509233050 91 146 1.0 5.0 0.00 0.00 0.00 43 1009.4
20260509231553 91 108 0.0 5.0 0.00 0.00 0.00 44 1009.6
20260509230056 92 120 1.0 4.0 0.00 0.00 0.00 45 1009.7
20260509224545 91 0 1.0 3.0 0.00 0.00 0.00 43 1009.8
20260509223048 90 134 1.0 4.0 0.00 0.00 0.00 47 1009.9
20260509221548 88 190 0.0 3.0 0.00 0.00 0.00 48 1009.9
20260509220043 89 140 3.0 8.0 0.00 0.00 0.00 48 1010.0
20260509214543 90 299 2.0 8.0 0.00 0.00 0.00 48 1010.1
20260509213057 90 9 1.0 5.0 0.00 0.00 0.00 48 1010.2
20260509211547 89 192 1.0 10.0 0.00 0.00 0.00 49 1010.3
20260509210050 89 76 2.0 9.0 0.00 0.00 0.00 54 1010.5
20260509204545 89 125 2.0 6.0 0.00 0.00 0.00 55 1010.7
20260509203044 89 50 3.0 8.0 0.00 0.00 0.00 52 1011.1
20260509201542 89 76 2.0 6.0 0.00 0.00 0.00 55 1011.2
20260509200054 87 31 2.0 10.0 0.00 0.00 0.00 55 1011.6
20260509194546 86 173 4.0 8.0 0.00 0.00 0.00 58 1011.7